Weather History for Brno, Czech Republic

Change the Weather History Date:

Thursday, November 22, 2012

  Actual Average Record
Temperature  
Mean Temperature 44 °F -  
Max Temperature 47 °F 37 °F - ()
Min Temperature 41 °F 29 °F - ()
Degree Days  
Heating Degree Days 21    
Moisture  
Dew Point 41 °F    
Average Humidity 87    
Maximum Humidity 93    
Minimum Humidity 71    
Precipitation  
Precipitation 0.00 in 0.04 in - ()
Sea Level Pressure  
Sea Level Pressure 30.24 in    
Wind  
Wind Speed 4 mph ()    
Max Wind Speed 7 mph    
Max Gust Speed -    
Visibility 4.2 miles    
Events Rain    
T = Trace of Precipitation, MM = Missing Value Source: Averaged Metar Reports

Daily Weather History Graph

Daily Weather History Graph

Search for Another Location

Airport:

Trip Planner

Search our weather history database for the weather conditions in past years. The results will help you decide how hot, cold, wet, or windy it might be!

Date:

Astronomy

Nov. 22, 2012 Rise Set
Actual Time 7:14 AM CET 4:04 PM CET
Civil Twilight 6:38 AM CET 4:39 PM CET
Nautical Twilight 5:59 AM CET 5:19 PM CET
Astronomical Twilight 5:21 AM CET 5:56 PM CET
Moon 1:07 PM CET (11/22) 12:47 AM CET (11/22)
Length of Visible Light 10h 01m
Length of Day
8h 49m
Waxing Gibbous, 69% of the Moon is Illuminated
Nov 22
Waxing Gibbous
Nov 28
Full
Dec 6
Last Quarter
Dec 13
New
Dec 20
First Quarter

Hourly Weather History & Observations

Time (CET) Temp. Windchill Dew Point Humidity Pressure Visibility Wind Dir Wind Speed Gust Speed Precip Events Conditions
12:00 AM 46.4 °F 44.3 °F 42.8 °F 87% 30.15 in 3.7 mi South 4.6 mph - N/A   Overcast
12:30 AM 46.4 °F 43.5 °F 42.8 °F 87% 30.15 in 2.5 mi South 5.8 mph - N/A Rain Light Rain
1:00 AM 46 °F - 44 °F 88% 30.20 in 2 mi South 6.7 mph - - Rain Light Rain
1:00 AM 44.6 °F 41.4 °F 42.8 °F 93% 30.18 in 1.7 mi South 5.8 mph - N/A Rain Light Rain
1:30 AM 44.6 °F 41.4 °F 42.8 °F 93% 30.18 in 1.6 mi South 5.8 mph - N/A   Light Drizzle
2:00 AM 44.6 °F 42.2 °F 42.8 °F 93% 30.18 in 1.5 mi South 4.6 mph - N/A   Light Drizzle
2:30 AM 44.6 °F 43.1 °F 42.8 °F 93% 30.18 in 1.1 mi South 3.5 mph - N/A   Light Drizzle
3:00 AM 44.6 °F 40.7 °F 42.8 °F 93% 30.18 in 1.5 mi SSW 6.9 mph - N/A   Overcast
3:19 AM 44.6 °F 40.7 °F 42.8 °F 93% 30.18 in - SSW 6.9 mph - N/A   Overcast
3:30 AM 44.6 °F 40.7 °F 42.8 °F 93% 30.18 in 2.2 mi South 6.9 mph - N/A   Overcast
4:00 AM 44.6 °F 41.4 °F 41.0 °F 87% 30.18 in 2.8 mi SSW 5.8 mph - N/A   Overcast
4:30 AM 44.6 °F 41.4 °F 41.0 °F 87% 30.18 in 3.1 mi SSW 5.8 mph - N/A   Overcast
5:00 AM 44.6 °F 43.1 °F 41.0 °F 87% 30.21 in 3.7 mi SSW 3.5 mph - N/A   Mostly Cloudy
5:30 AM 44.6 °F 42.2 °F 41.0 °F 87% 30.21 in 4.3 mi SSW 4.6 mph - N/A   Overcast
6:00 AM 44.6 °F 41.4 °F 41.0 °F 87% 30.21 in 4.3 mi SW 5.8 mph - N/A   Overcast
6:30 AM 42.8 °F 40.1 °F 41.0 °F 93% 30.21 in 4.3 mi SSW 4.6 mph - N/A   Overcast
7:00 AM 42 °F - 40 °F 89% 30.27 in 4 mi South 4.5 mph - -   Mist
7:00 AM 42.8 °F 40.1 °F 41.0 °F 93% 30.21 in 3.7 mi SSE 4.6 mph - N/A   Mostly Cloudy
7:30 AM 41.0 °F - 39.2 °F 93% 30.24 in 3.1 mi Variable 2.3 mph - N/A   Mostly Cloudy
8:00 AM 41.0 °F 39.0 °F 39.2 °F 93% 30.24 in 2.5 mi East 3.5 mph - N/A   Scattered Clouds
8:05 AM 41.0 °F - 39.2 °F 93% 30.24 in 2.5 mi ENE 2.3 mph - N/A   Mostly Cloudy
8:30 AM 42.8 °F - 41.0 °F 93% 30.27 in 2.5 mi Calm Calm - N/A   Overcast
9:00 AM 42.8 °F - 41.0 °F 93% 30.27 in 2.5 mi Calm Calm - N/A   Mostly Cloudy
9:30 AM 44.6 °F - 41.0 °F 87% 30.27 in 2.8 mi Calm Calm - N/A   Mostly Cloudy
10:00 AM 44.6 °F - 41.0 °F 87% 30.27 in 2.5 mi SE 2.3 mph - N/A   Mostly Cloudy
10:16 AM 44.6 °F - 42.8 °F 93% 30.27 in 2.5 mi Variable 2.3 mph - N/A   Mostly Cloudy
10:30 AM 44.6 °F 43.1 °F 41.0 °F 87% 30.27 in 3.1 mi SSE 3.5 mph - N/A   Mostly Cloudy
11:00 AM 44.6 °F - 42.8 °F 93% 30.27 in 3.7 mi Variable 2.3 mph - N/A   Mostly Cloudy
11:30 AM 44.6 °F 43.1 °F 41.0 °F 87% 30.27 in 3.7 mi SSW 3.5 mph - N/A   Mostly Cloudy
12:00 PM 46.4 °F 45.2 °F 42.8 °F 87% 30.27 in 5.0 mi SW 3.5 mph - N/A   Mostly Cloudy
12:30 PM 46.4 °F - 41.0 °F 81% 30.27 in 6.2 mi Variable 2.3 mph - N/A   Mostly Cloudy
1:00 PM 47 °F - 40 °F 71% 30.30 in 6 mi SW 2.2 mph - -   Mostly Cloudy
1:00 PM 46.4 °F - 41.0 °F 81% 30.27 in 6.2 mi Variable 2.3 mph - N/A   Mostly Cloudy
1:30 PM 46.4 °F - 41.0 °F 81% 30.27 in 6.2 mi Variable 2.3 mph - N/A   Mostly Cloudy
2:00 PM 46.4 °F 45.2 °F 41.0 °F 81% 30.27 in 6.2 mi SSW 3.5 mph - N/A   Overcast
2:30 PM 46.4 °F 45.2 °F 41.0 °F 81% 30.27 in 6.2 mi SSW 3.5 mph - N/A   Overcast
3:00 PM 46.4 °F - 41.0 °F 81% 30.27 in 6.2 mi SSW 2.3 mph - N/A   Overcast
3:30 PM 46.4 °F 45.2 °F 41.0 °F 81% 30.27 in 6.2 mi SSW 3.5 mph - N/A   Overcast
4:00 PM 46.4 °F - 41.0 °F 81% 30.27 in 6.2 mi SW 2.3 mph - N/A   Mostly Cloudy
4:30 PM 44.6 °F 43.1 °F 39.2 °F 81% 30.27 in 6.2 mi WSW 3.5 mph - N/A   Mostly Cloudy
5:00 PM 44.6 °F 43.1 °F 39.2 °F 81% 30.27 in 6.2 mi WSW 3.5 mph - N/A   Mostly Cloudy
5:30 PM 44.6 °F - 39.2 °F 81% 30.27 in 6.2 mi SSW 2.3 mph - N/A   Scattered Clouds
6:00 PM 42.8 °F - 39.2 °F 87% 30.27 in 6.2 mi WSW 2.3 mph - N/A   Partly Cloudy
6:30 PM 42.8 °F - 39.2 °F 87% 30.27 in 6.2 mi Calm Calm - N/A   Scattered Clouds
7:00 PM 43 °F - 40 °F 83% 30.31 in 6 mi NE 2.2 mph - -   Partly Cloudy
7:00 PM 42.8 °F - 39.2 °F 87% 30.27 in 6.2 mi NE 2.3 mph - N/A   Scattered Clouds
7:30 PM 42.8 °F - 39.2 °F 87% 30.27 in 6.2 mi NNE 2.3 mph - N/A   Scattered Clouds
8:00 PM 42.8 °F 41.1 °F 39.2 °F 87% 30.27 in 6.2 mi NE 3.5 mph - N/A   Scattered Clouds
8:30 PM 42.8 °F 41.1 °F 39.2 °F 87% 30.27 in 6.2 mi NE 3.5 mph - N/A   Mostly Cloudy
9:00 PM 42.8 °F 40.1 °F 39.2 °F 87% 30.27 in 6.2 mi NE 4.6 mph - N/A   Scattered Clouds
9:30 PM 42.8 °F 41.1 °F 39.2 °F 87% 30.27 in 5.0 mi ENE 3.5 mph - N/A   Partly Cloudy
10:00 PM 42.8 °F - 39.2 °F 87% 30.27 in 4.3 mi NNE 2.3 mph - N/A   Partly Cloudy
10:30 PM 42.8 °F 40.1 °F 39.2 °F 87% 30.27 in 4.3 mi NE 4.6 mph - N/A   Partly Cloudy
11:00 PM 41.0 °F - 37.4 °F 87% 30.27 in 3.7 mi ENE 2.3 mph - N/A   Mostly Cloudy
11:30 PM 42.8 °F 41.1 °F 39.2 °F 87% 30.27 in 3.1 mi NE 3.5 mph - N/A   Scattered Clouds